Total_Precipitation_Accumulation
0.47 0.65 0.68 0.60 0.64 0.72 0.61 0.55 0.64 0.68 0.52 0.62 0.64 0.50 0.41 0.37 0.34 0.35 0.40 0.42 0.37 0.28 0.18 0.10 0.09 0.13 0.18 0.17 0.16 0.19 0.24 0.31 0.29 0.26 0.33 0.44 0.53 0.67 0.81 0.98 1.04 1.28 1.38 1.29
0.56 0.48 0.37 0.42 0.47 0.56 0.56 0.57 0.60 0.57 0.50 0.55 0.61 0.52 0.41 0.32 0.29 0.29 0.30 0.30 0.31 0.23 0.14 0.10 0.06 0.07 0.08 0.10 0.09 0.12 0.16 0.25 0.32 0.36 0.41 0.53 0.71 0.83 0.93 1.06 1.13 1.25 1.27 1.27
0.41 0.34 0.31 0.35 0.39 0.49 0.50 0.58 0.53 0.53 0.57 0.53 0.58 0.63 0.50 0.35 0.30 0.30 0.27 0.27 0.24 0.16 0.14 0.12 0.09 0.08 0.06 0.06 0.07 0.12 0.20 0.33 0.50 0.66 0.88 1.13 1.41 1.53 1.42 1.27 1.35 1.47 1.55 1.52
0.50 0.35 0.31 0.35 0.38 0.43 0.57 0.40 0.36 0.41 0.60 0.61 0.51 0.66 0.50 0.36 0.35 0.36 0.31 0.26 0.22 0.19 0.16 0.13 0.11 0.10 0.09 0.14 0.20 0.29 0.41 0.57 0.74 0.95 1.17 1.43 1.66 1.83 1.84 1.86 1.90 1.88 1.83 1.73
0.54 0.35 0.32 0.37 0.33 0.35 0.46 0.39 0.36 0.40 0.53 0.51 0.46 0.46 0.38 0.36 0.43 0.44 0.41 0.37 0.31 0.29 0.27 0.25 0.21 0.19 0.20 0.30 0.43 0.54 0.76 0.93 1.07 1.13 1.23 1.45 1.56 1.63 1.74 1.88 1.93 1.93 1.85 1.73
0.44 0.31 0.30 0.31 0.27 0.29 0.39 0.44 0.46 0.52 0.57 0.49 0.35 0.35 0.40 0.39 0.46 0.53 0.49 0.44 0.39 0.34 0.31 0.32 0.34 0.34 0.37 0.58 0.82 0.97 1.07 1.16 1.16 1.14 1.16 1.30 1.44 1.52 1.60 1.73 1.79 1.73 1.60 1.56
0.42 0.35 0.28 0.28 0.32 0.31 0.38 0.53 0.60 0.62 0.56 0.40 0.23 0.29 0.39 0.34 0.32 0.38 0.41 0.39 0.35 0.28 0.25 0.29 0.37 0.48 0.67 0.91 1.14 1.29 1.29 1.19 1.05 1.03 1.09 1.15 1.30 1.46 1.49 1.49 1.51 1.46 1.39 1.34
0.35 0.39 0.26 0.23 0.25 0.27 0.32 0.39 0.53 0.57 0.46 0.33 0.26 0.39 0.45 0.34 0.25 0.21 0.21 0.24 0.28 0.31 0.36 0.37 0.42 0.59 0.87 1.13 1.37 1.64 1.62 1.39 1.16 1.11 1.17 1.19 1.27 1.35 1.33 1.26 1.26 1.26 1.22 1.17
0.26 0.27 0.22 0.23 0.23 0.23 0.28 0.29 0.30 0.43 0.36 0.29 0.26 0.34 0.34 0.23 0.18 0.17 0.19 0.24 0.32 0.36 0.45 0.54 0.64 0.73 0.93 1.15 1.48 1.77 1.82 1.62 1.46 1.37 1.31 1.32 1.22 1.13 1.05 0.98 0.96 1.00 1.01 0.94
0.22 0.25 0.24 0.23 0.26 0.23 0.22 0.24 0.26 0.44 0.47 0.39 0.30 0.33 0.26 0.17 0.14 0.16 0.26 0.32 0.39 0.44 0.47 0.62 0.87 1.07 1.29 1.24 1.38 1.61 1.55 1.48 1.46 1.47 1.46 1.36 1.20 1.07 1.03 0.95 0.93 0.90 0.94 0.85
0.16 0.26 0.29 0.26 0.22 0.18 0.19 0.22 0.23 0.33 0.36 0.44 0.49 0.45 0.28 0.23 0.24 0.29 0.38 0.41 0.46 0.53 0.56 0.70 0.86 1.01 1.18 1.28 1.30 1.33 1.32 1.33 1.29 1.23 1.18 1.06 0.86 0.75 0.76 0.78 0.73 0.68 0.71 0.66
0.12 0.23 0.29 0.23 0.16 0.17 0.20 0.23 0.25 0.41 0.44 0.44 0.61 0.65 0.39 0.37 0.41 0.50 0.57 0.62 0.66 0.66 0.68 0.78 0.84 0.98 1.05 1.05 1.10 1.17 1.10 1.09 1.05 0.94 0.84 0.72 0.57 0.51 0.56 0.57 0.52 0.45 0.47 0.44
0.14 0.25 0.33 0.32 0.26 0.24 0.36 0.40 0.30 0.28 0.42 0.55 0.72 0.73 0.55 0.55 0.62 0.72 0.82 0.82 0.77 0.71 0.68 0.72 0.75 0.84 0.90 0.93 1.00 1.08 1.02 1.03 1.02 0.88 0.72 0.64 0.57 0.54 0.53 0.47 0.40 0.32 0.31 0.34
0.12 0.23 0.24 0.26 0.24 0.25 0.42 0.48 0.37 0.34 0.50 0.54 0.59 0.69 0.71 0.81 0.85 0.86 0.86 0.82 0.70 0.58 0.50 0.46 0.44 0.51 0.57 0.63 0.73 0.82 0.79 0.97 1.12 1.05 0.85 0.72 0.67 0.57 0.47 0.37 0.34 0.29 0.32 0.36
0.11 0.20 0.17 0.11 0.09 0.13 0.25 0.31 0.27 0.29 0.35 0.41 0.45 0.54 0.68 0.79 0.84 0.81 0.71 0.55 0.44 0.35 0.26 0.22 0.21 0.27 0.32 0.41 0.46 0.54 0.67 0.87 0.90 0.74 0.54 0.46 0.44 0.39 0.31 0.25 0.23 0.22 0.22 0.22
0.10 0.16 0.14 0.11 0.07 0.08 0.10 0.09 0.09 0.10 0.14 0.20 0.29 0.44 0.52 0.57 0.57 0.51 0.40 0.27 0.22 0.18 0.13 0.11 0.11 0.14 0.14 0.15 0.22 0.33 0.41 0.47 0.44 0.36 0.29 0.25 0.21 0.19 0.16 0.16 0.15 0.11 0.09 0.09
0.10 0.16 0.21 0.20 0.09 0.09 0.08 0.04 0.06 0.12 0.14 0.21 0.35 0.43 0.38 0.36 0.35 0.32 0.22 0.13 0.11 0.09 0.06 0.05 0.06 0.08 0.08 0.07 0.06 0.07 0.09 0.13 0.12 0.09 0.08 0.07 0.07 0.07 0.07 0.07 0.07 0.07 0.07 0.06
0.09 0.16 0.23 0.23 0.20 0.16 0.06 0.02 0.04 0.08 0.13 0.20 0.29 0.29 0.23 0.19 0.16 0.14 0.09 0.06 0.05 0.04 0.02 0.02 0.03 0.04 0.04 0.05 0.05 0.04 0.03 0.04 0.03 0.03 0.03 0.03 0.03 0.04 0.05 0.06 0.05 0.04 0.03 0.04
0.07 0.16 0.25 0.24 0.28 0.14 0.04 0.02 0.02 0.03 0.04 0.06 0.08 0.09 0.07 0.05 0.06 0.05 0.03 0.03 0.03 0.03 0.02 0.02 0.02 0.03 0.04 0.05 0.06 0.04 0.02 0.02 0.03 0.03 0.03 0.03 0.02 0.02 0.03 0.03 0.03 0.02 0.01 0.03
0.08 0.12 0.20 0.23 0.25 0.17 0.07 0.04 0.03 0.02 0.03 0.02 0.02 0.02 0.02 0.02 0.05 0.04 0.02 0.01 0.03 0.04 0.02 0.02 0.03 0.04 0.04 0.05 0.05 0.04 0.03 0.02 0.02 0.02 0.03 0.04 0.03 0.03 0.03 0.02 0.02 0.01 0.02 0.02
0.09 0.10 0.13 0.19 0.22 0.12 0.05 0.05 0.04 0.04 0.03 0.01 0.01 0.01 0.02 0.02 0.03 0.03 0.01 0.02 0.02 0.05 0.05 0.04 0.05 0.04 0.04 0.04 0.05 0.04 0.02 0.01 0.02 0.02 0.03 0.04 0.03 0.03 0.03 0.05 0.04 0.03 0.03 0.03
0.09 0.10 0.12 0.16 0.19 0.09 0.02 0.02 0.03 0.02 0.01 0.01 0.01 0.01 0.02 0.03 0.03 0.02 0.02 0.02 0.02 0.04 0.06 0.06 0.06 0.05 0.05 0.05 0.05 0.04 0.03 0.03 0.03 0.03 0.03 0.03 0.03 0.03 0.04 0.07 0.06 0.04 0.03 0.03
0.07 0.07 0.08 0.10 0.08 0.04 0.03 0.02 0.02 0.02 0.01 0.01 0.00 0.01 0.01 0.01 0.02 0.03 0.03 0.02 0.02 0.04 0.04 0.05 0.05 0.06 0.06 0.06 0.06 0.07 0.06 0.06 0.04 0.03 0.03 0.03 0.03 0.04 0.05 0.06 0.06 0.05 0.04 0.04
0.06 0.04 0.06 0.07 0.04 0.03 0.03 0.02 0.02 0.01 0.01 0.01 0.00 0.01 0.01 0.01 0.02 0.02 0.02 0.02 0.03 0.04 0.04 0.04 0.06 0.07 0.08 0.08 0.08 0.09 0.08 0.06 0.04 0.03 0.04 0.04 0.04 0.04 0.05 0.04 0.04 0.04 0.04 0.05
0.06 0.05 0.05 0.05 0.03 0.03 0.02 0.01 0.01 0.01 0.01 0.00 0.00 0.00 0.01 0.01 0.02 0.03 0.02 0.03 0.03 0.03 0.03 0.03 0.04 0.05 0.06 0.07 0.06 0.06 0.05 0.05 0.04 0.04 0.04 0.05 0.04 0.04 0.05 0.04 0.04 0.04 0.04 0.05
0.04 0.04 0.04 0.04 0.04 0.03 0.02 0.02 0.01 0.01 0.01 0.00 0.01 0.01 0.01 0.01 0.02 0.03 0.04 0.04 0.04 0.03 0.03 0.02 0.04 0.05 0.05 0.05 0.04 0.04 0.04 0.05 0.05 0.04 0.04 0.05 0.05 0.04 0.04 0.06 0.06 0.05 0.05 0.06